Flag for United Kingdom Weather past 2 weeks in Market Harborough, England, United Kingdom

Now
55 °F

Cool.


Feels Like: 52 °F
Forecast: 36 / 53 °F
Wind: 10 mph from Northwest

Location: Church Lawford

Current Time: Apr 25, 2015 at 8:12:32 PM

Latest Report: Apr 25, 2015 at 7:00 PM


Visibility: 28 mi

Pressure: 29.66 "Hg

Humidity: 72%

Dew point: 46 °F

Location of Market HarboroughLocation

Historic Weather in Market Harborough — Graph

°F

Market Harborough temperature yesterday

Maximum temperature yesterday: 60 °F (at 12:00 PM)
Minimum temperature yesterday: 39 °F (at 6:00 AM)
Average temperature yesterday: 51 °F

Past Weeks' High & Low Weather Summary

 TemperatureHumidityPressure
High67 °F (Apr 15, 3:00 PM)99% (Apr 13, 9:00 AM)30.59 "Hg (Apr 13, 9:00 AM)
Low31 °F (Apr 20, 6:00 AM)36% (Apr 15, 5:00 PM)29.63 "Hg (Apr 25, 3:00 PM)
Average49 °F74%30.19 "Hg
* Reported Apr 10 7:00 PM — Apr 25 6:00 PM, Market Harborough, Weather by CustomWeather, © 2015

Note: Actual official high and low records may vary slightly from our data, if they occured in-between our weather recording intervals... More about our weather records

Advertising

Market Harborough weather history for previous 24 hours

 ConditionsComfort  
Time TempWeatherWind HumidityBarometerVisibility
6:00 PM
Sat, Apr 25
59 °FRefreshingly cool.8 mph57%29.63 "Hg19 mi
5:00 PM60 °FRefreshingly cool.10 mph53%29.63 "Hg22 mi
4:00 PM60 °FRefreshingly cool.14 mph53%29.63 "Hg22 mi
3:00 PM60 °FRefreshingly cool.13 mph58%29.63 "Hg17 mi
1:00 PM56 °FCool.9 mph72%29.65 "Hg7 mi
12:00 PM56 °FCool.10 mph70%29.65 "Hg19 mi
11:00 AM55 °FCool.9 mph74%29.65 "Hg5 mi
10:00 AM55 °FCool.9 mph72%29.65 "Hg18 mi
9:00 AM55 °FCool.9 mph75%29.64 "Hg19 mi
8:00 AM52 °FCool.6 mph85%29.64 "Hg15 mi
7:00 AM50 °FCool.3 mph89%29.65 "Hg11 mi
6:00 AM49 °FCool.5 mph92%29.65 "Hg7 mi
5:00 AM49 °FCool.6 mph90%29.66 "Hg7 mi
4:00 AM50 °FCool.6 mph91%29.66 "Hg11 mi
3:00 AM50 °FCool.6 mph93%29.67 "Hg11 mi
2:00 AM50 °FCool.5 mph94%29.69 "Hg7 mi
12:00 AM53 °FCool.6 mph85%29.72 "Hg9 mi
11:00 PM
Fri, Apr 24
54 °FCool.6 mph82%29.72 "Hg12 mi
9:00 PM56 °FCool.5 mph74%29.73 "Hg10 mi
8:00 PM57 °FCool.6 mph69%29.73 "Hg14 mi
Weather by CustomWeather, © 2015

See weather overviewHow to use our weather pages